User: anonymous   Login
Location: Владивосток
(43.1151°N, 131.8856°E)
Time: 10:45:21
(UTC+10:00)
Language:

METEOR M2 - Orbit

View from above orbital plane
View from above orbital plane
View from above satellite
View from above satellite

Ground track
Ground track

The orbit data is extracted from the following two-line orbital elements,

1 40069U 14037A   24109.52981900  .00000469  00000-0  23567-3 0  9999
2 40069  98.4362 106.4387 0006043 160.2917 199.8496 14.20931452507156
Epoch (UTC): 18 April 2024 12:42:56
Eccentricity: 0.0006043
inclination: 98.4362°
perigee height: 818 km
apogee height: 826 km
right ascension of ascending node: 106.4387°
argument of perigee: 160.2917°
revolutions per day: 14.20931452
mean anomaly at epoch: 199.8496°
orbit number at epoch: 50715

The dashed part of the orbit path shows where the satellite is in the earth's shadow,  

DLR